Notices

What's New in latest Release from April 7th, 2021:

- Updated Glossary, including Speed of Maximum Gust, and Total Hourly Precipitation

- Updated national and regional climate services offices contacts and prices information

- Addition of station inventory lists for 1981-2010, 1971-2000, and 1961-1990 Normals.

If you haven't already, please take our survey and provide feedback about our website: https://eccc.sondage-survey.ca/f/LanguageSelection.aspx?s=442ca660-fcf1-47c0-95a9-59707d6fd709

Hourly Data Report for April 28, 2012

MIRAMICHI RCS
NEW BRUNSWICK

47°00'34.000" N
65°27'54.000" W
33.00 m
8100989
71744
ACQ

Download Data

Hourly Data (April 2012)
Hourly Data Report for April 28, 2012
TIME
LST
Temp Definition
°C
Dew Point Definition
°C
Rel Hum Definition
%
Precip. Amount Definition
mm

Wind Dir Definition
10's deg

Wind Spd Definition
km/h
Visibility Definition
km
Stn Press Definition
kPa
Hmdx Definition


Wind Chill Definition


Weather Definition


00:00 3.2 1.2 87   25 19   99.12     LegendNANA
01:00 2.7 -0.2 81   26 19   99.25     LegendNANA
02:00 2.2 -1.8 75   28 22   99.38     LegendNANA
03:00 1.5 -3.3 70   27 26   99.50     LegendNANA
04:00 1.0 -4.5 67   28 24   99.59     LegendNANA
05:00 0.6 -5.0 66   27 24   99.69     LegendNANA
06:00 0.3 -5.8 64   28 26   99.76     LegendNANA
07:00 0.8 -6.5 58   28 28   99.82     LegendNANA
08:00 1.2 -6.8 55   28 30   99.90     LegendNANA
09:00 1.4 -6.5 56   28 28   99.96     LegendNANA
10:00 1.9 -6.3 55   28 26   100.00     LegendNANA
11:00 1.7 -7.1 52   29 28   100.06     LegendNANA
12:00 1.4 -7.2 53   28 30   100.08     LegendNANA
13:00 3.0 -7.0 48   28 24   100.08     LegendNANA
14:00 3.2 -7.3 46   29 26   100.14     LegendNANA
15:00 3.3 -6.3 49   28 30   100.17     LegendNANA
16:00 3.3 -7.9 44   28 33   100.21     LegendNANA
17:00 3.1 -8.3 43   28 30   100.30     LegendNANA
18:00 3.0 -8.9 41   29 30   100.40     LegendNANA
19:00 2.3 -8.6 44   29 15   100.51     LegendNANA
20:00 1.3 -8.5 48   27 13   100.60     LegendNANA
21:00 0.7 -8.7 49   26 13   100.68     LegendNANA
22:00 0.0 -9.0 51   25 11   100.73   -4 LegendNANA
23:00 -0.2 -9.8 48   26 11   100.78   -4 LegendNANA

Notes on Data Quality.

Legend

  • E = Estimated
  • M = Missing
  • NA = Not Available*
  • [empty] = Indicates an unobserved value
Date modified: